• In Belarus
  • List of Countries
  • For 7 days
  • Water Temperature
  • Weather Map
  • Weather Widgets
  • user-avatar
    Login

    Hourly Weather Giumri

    Today, 17 October, Thursday

    Time Temperature Precipitation Wind Pressure Humidity
    00:00 +12°C° 0 mm 1 mps 638 mmHg 35%
    01:00 +12°C° 0 mm 1 mps 638 mmHg 36%
    02:00 +11°C° 0 mm 1 mps 638 mmHg 36%
    03:00 +11°C° 0 mm 1 mps 638 mmHg 37%
    04:00 +11°C° 0 mm 1 mps 638 mmHg 37%
    05:00 +10°C° 0 mm 1 mps 638 mmHg 38%
    06:00 +10°C° 0 mm 1 mps 638 mmHg 39%
    07:00 +12°C° 0 mm 1 mps 638 mmHg 34%
    08:00 +15°C° 0 mm 1 mps 639 mmHg 30%
    09:00 +18°C° 0 mm 1 mps 640 mmHg 25%
    10:00 +19°C° 0 mm 1 mps 640 mmHg 23%
    11:00 +20°C° 0 mm 2 mps 640 mmHg 20%
    12:00 +21°C° 0 mm 2 mps 641 mmHg 18%
    13:00 +23°C° 0 mm 2 mps 641 mmHg 17%
    14:00 +23°C° 0 mm 2 mps 640 mmHg 17%
    15:00 +22°C° 0 mm 3 mps 640 mmHg 16%
    16:00 +20°C° 0 mm 2 mps 640 mmHg 21%
    17:00 +18°C° 0 mm 2 mps 639 mmHg 25%
    18:00 +16°C° 0 mm 1 mps 638 mmHg 29%
    19:00 +15°C° 0 mm 1 mps 638 mmHg 33%
    20:00 +14°C° 0 mm 1 mps 638 mmHg 36%
    21:00 +13°C° 0 mm 1 mps 638 mmHg 39%
    22:00 +13°C° 0 mm 1 mps 638 mmHg 40%
    23:00 +12°C° 0 mm 1 mps 637 mmHg 40%

    Tomorrow, 18 October, Friday

    Time Temperature Precipitation Wind Pressure Humidity
    00:00 +12°C° 0 mm 1 mps 637 mmHg 40%
    01:00 +12°C° 0 mm 1 mps 637 mmHg 39%
    02:00 +12°C° 0 mm 1 mps 637 mmHg 37%
    03:00 +11°C° 0 mm 1 mps 637 mmHg 35%
    04:00 +11°C° 0 mm 1 mps 637 mmHg 35%
    05:00 +11°C° 0 mm 1 mps 637 mmHg 34%
    06:00 +11°C° 0 mm 1 mps 636 mmHg 34%
    07:00 +13°C° 0 mm 1 mps 637 mmHg 31%
    08:00 +15°C° 0 mm 1 mps 638 mmHg 28%
    09:00 +18°C° 0 mm 1 mps 638 mmHg 26%
    10:00 +19°C° 0 mm 1 mps 639 mmHg 24%
    11:00 +20°C° 0 mm 2 mps 639 mmHg 23%
    12:00 +21°C° 0 mm 2 mps 639 mmHg 21%
    13:00 +23°C° 0 mm 2 mps 639 mmHg 22%
    14:00 +23°C° 0 mm 2 mps 639 mmHg 23%
    15:00 +23°C° 0 mm 2 mps 638 mmHg 23%
    16:00 +21°C° 0 mm 2 mps 638 mmHg 29%
    17:00 +20°C° 0 mm 1 mps 637 mmHg 34%
    18:00 +18°C° 0 mm 1 mps 637 mmHg 39%
    19:00 +16°C° 0 mm 1 mps 637 mmHg 41%
    20:00 +15°C° 0 mm 1 mps 637 mmHg 44%
    21:00 +14°C° 0 mm 1 mps 637 mmHg 46%
    22:00 +14°C° 0 mm 1 mps 636 mmHg 47%
    23:00 +14°C° 0 mm 1 mps 636 mmHg 48%

    Day after tomorrow, 19 October, Saturday

    Time Temperature Precipitation Wind Pressure Humidity
    00:00 +13°C° 0 mm 1 mps 636 mmHg 50%
    01:00 +13°C° 0 mm 1 mps 636 mmHg 51%
    02:00 +13°C° 0 mm 1 mps 636 mmHg 51%
    03:00 +12°C° 0 mm 1 mps 636 mmHg 52%
    04:00 +12°C° 0 mm 1 mps 636 mmHg 53%
    05:00 +12°C° 0 mm 1 mps 636 mmHg 53%
    06:00 +11°C° 0 mm 1 mps 636 mmHg 54%
    07:00 +14°C° 0 mm 1 mps 637 mmHg 49%
    08:00 +15°C° 0 mm 0 mps 637 mmHg 43%
    09:00 +17°C° 0 mm 0 mps 638 mmHg 38%
    10:00 +20°C° 0 mm 1 mps 638 mmHg 35%
    11:00 +21°C° 0 mm 1 mps 639 mmHg 32%
    12:00 +23°C° 0 mm 2 mps 639 mmHg 28%
    13:00 +23°C° 0 mm 2 mps 638 mmHg 28%
    14:00 +23°C° 0 mm 2 mps 638 mmHg 27%
    15:00 +23°C° 0 mm 1 mps 638 mmHg 26%
    16:00 +21°C° 0 mm 1 mps 638 mmHg 32%
    17:00 +20°C° 0 mm 1 mps 637 mmHg 37%
    18:00 +18°C° 0 mm 1 mps 637 mmHg 42%
    19:00 +16°C° 0 mm 1 mps 637 mmHg 46%
    20:00 +15°C° 0 mm 1 mps 637 mmHg 50%
    21:00 +15°C° 0 mm 1 mps 637 mmHg 54%
    22:00 +14°C° 0 mm 1 mps 637 mmHg 56%
    23:00 +14°C° 0 mm 2 mps 637 mmHg 58%

    20 October, Sunday

    Time Temperature Precipitation Wind Pressure Humidity
    00:00 +13°C° 0 mm 2 mps 637 mmHg 60%
    01:00 +13°C° 0 mm 2 mps 637 mmHg 61%
    02:00 +13°C° 0 mm 2 mps 637 mmHg 62%
    03:00 +12°C° 0 mm 2 mps 637 mmHg 63%
    04:00 +12°C° 0 mm 2 mps 637 mmHg 65%
    05:00 +12°C° 0 mm 2 mps 637 mmHg 66%
    06:00 +10°C° 0 mm 2 mps 637 mmHg 68%
    07:00 +13°C° 0 mm 2 mps 637 mmHg 63%
    08:00 +15°C° 0 mm 2 mps 638 mmHg 57%
    09:00 +16°C° 0 mm 2 mps 638 mmHg 51%
    10:00 +18°C° 0 mm 2 mps 638 mmHg 47%
    11:00 +20°C° 0 mm 1 mps 639 mmHg 42%
    12:00 +22°C° 0 mm 1 mps 639 mmHg 37%
    13:00 +21°C° 0.2 mm 2 mps 639 mmHg 37%
    14:00 +21°C° 0.2 mm 2 mps 638 mmHg 37%
    15:00 +21°C° 0.2 mm 3 mps 638 mmHg 37%
    16:00 +19°C° 0.2 mm 3 mps 638 mmHg 45%
    17:00 +17°C° 0.2 mm 2 mps 637 mmHg 54%
    18:00 +15°C° 0.2 mm 2 mps 637 mmHg 62%
    19:00 +14°C° 0.1 mm 2 mps 637 mmHg 67%
    20:00 +12°C° 0.1 mm 3 mps 637 mmHg 73%
    21:00 +11°C° 0.1 mm 3 mps 637 mmHg 78%
    22:00 +11°C° 0 mm 3 mps 637 mmHg 78%
    23:00 +12°C° 0 mm 2 mps 637 mmHg 78%

    21 October, Monday

    Time Temperature Precipitation Wind Pressure Humidity
    00:00 +10°C° 0 mm 2 mps 637 mmHg 79%
    01:00 +10°C° 0 mm 2 mps 636 mmHg 79%
    02:00 +9°C° 0 mm 2 mps 636 mmHg 79%
    03:00 +9°C° 0 mm 2 mps 636 mmHg 79%
    04:00 +9°C° 0 mm 2 mps 636 mmHg 81%
    05:00 +8°C° 0 mm 2 mps 636 mmHg 82%
    06:00 +8°C° 0 mm 2 mps 636 mmHg 84%
    07:00 +10°C° 0 mm 2 mps 636 mmHg 76%
    08:00 +12°C° 0 mm 2 mps 637 mmHg 69%
    09:00 +14°C° 0 mm 2 mps 638 mmHg 62%
    10:00 +16°C° 0 mm 2 mps 638 mmHg 56%
    11:00 +17°C° 0 mm 2 mps 638 mmHg 51%
    12:00 +19°C° 0 mm 2 mps 639 mmHg 46%
    13:00 +19°C° 0.1 mm 2 mps 638 mmHg 46%
    14:00 +19°C° 0.1 mm 3 mps 638 mmHg 45%
    15:00 +19°C° 0.1 mm 3 mps 638 mmHg 45%
    16:00 +17°C° 0.2 mm 3 mps 637 mmHg 55%
    17:00 +14°C° 0.2 mm 3 mps 637 mmHg 64%
    18:00 +13°C° 0.2 mm 2 mps 636 mmHg 73%
    19:00 +12°C° 0.1 mm 3 mps 636 mmHg 75%
    20:00 +11°C° 0.1 mm 3 mps 636 mmHg 78%
    21:00 +10°C° 0.1 mm 3 mps 636 mmHg 80%
    22:00 +10°C° 0 mm 3 mps 636 mmHg 81%
    23:00 +9°C° 0 mm 2 mps 636 mmHg 81%

    22 October, Tuesday

    Time Temperature Precipitation Wind Pressure Humidity
    00:00 +9°C° 0 mm 2 mps 636 mmHg 82%
    01:00 +9°C° 0 mm 2 mps 635 mmHg 82%
    02:00 +8°C° 0 mm 2 mps 635 mmHg 83%
    03:00 +8°C° 0 mm 2 mps 635 mmHg 83%
    04:00 +8°C° 0 mm 2 mps 635 mmHg 84%
    05:00 +8°C° 0 mm 2 mps 635 mmHg 85%
    06:00 +7°C° 0 mm 2 mps 635 mmHg 85%
    07:00 +9°C° 0 mm 2 mps 636 mmHg 78%
    08:00 +12°C° 0 mm 1 mps 636 mmHg 71%
    09:00 +13°C° 0 mm 1 mps 637 mmHg 64%
    10:00 +15°C° 0.1 mm 1 mps 637 mmHg 59%
    11:00 +16°C° 0.1 mm 1 mps 637 mmHg 53%
    12:00 +18°C° 0.1 mm 2 mps 638 mmHg 48%
    13:00 +18°C° 0.2 mm 2 mps 637 mmHg 47%
    14:00 +18°C° 0.2 mm 2 mps 637 mmHg 47%
    15:00 +19°C° 0.2 mm 2 mps 637 mmHg 46%
    16:00 +17°C° 0.4 mm 2 mps 637 mmHg 54%
    17:00 +15°C° 0.4 mm 2 mps 636 mmHg 61%
    18:00 +13°C° 0.4 mm 2 mps 636 mmHg 69%
    19:00 +13°C° 0 mm 2 mps 636 mmHg 72%
    20:00 +12°C° 0 mm 2 mps 636 mmHg 74%
    21:00 +10°C° 0 mm 2 mps 636 mmHg 77%
    22:00 +10°C° 0 mm 2 mps 636 mmHg 79%
    23:00 +10°C° 0 mm 2 mps 636 mmHg 80%
    Show more